Regional Weather Roundup
Issued by NWS

Home | Current Version | Previous Version | Text Only | Print | Product List | Glossary Off
Versions: 1 2 3 4 5 6 7 8 9 10 11 12 13 14 15 16 17 18 19 20 21 22 23 24 25 26 27 28 29 30 31 32 33 34 35 36 37 38 39 40 41 42 43 44 45 46 47 48 49 50

471
ASUS44 KJAN 221803
RWRMS

MISSISSIPPI HOURLY WEATHER ROUNDUP
NATIONAL WEATHER SERVICE JACKSON MS
100 PM CDT TUE APR 22 2014

NOTE: "FAIR: INDICATES FEW OR NO CLOUDS BELOW 12,000 FEET WITH NO
SIGNIFICANT WEATHER AND/OR OBSTRUCTIONS TO VISIBILITY.

MSZ001>002-007>008-010>013-018>021-025>028-034>036-221900-
NORTHWEST MISSISSIPPI

CITY           SKY/WX    TMP DP  RH WIND       PRES   REMARKS
CLARKSDALE       N/A     73  64  73 N13G18    29.96F
CLEVELAND      MOCLDY    72  66  79 N12       29.94F
GREENWOOD      CLOUDY    74  62  66 N6        29.93F
6HR MIN TEMP:  63; 6HR MAX TEMP:  74; 6HR PCP:  0.02;

GREENVILLE     PTSUNNY   72  64  76 N12       29.94F
6HR MIN TEMP:  65; 6HR MAX TEMP:  74;

GRENADA        CLOUDY    72  61  68 N5        29.93F
OLIVE BRANCH   CLOUDY    70  64  83 N10G16    29.95F
OXFORD         PTSUNNY   72  59  64 N6        29.95F
TUNICA         MOCLDY    70  61  73 N8        29.96F
$$

MSZ003>006-009-014>017-022>024-029>033-037>039-221900-
NORTHEAST MISSISSIPPI

CITY           SKY/WX    TMP DP  RH WIND       PRES   REMARKS
BELMONT        CLOUDY    69  62  77 W5        29.91F
COLUMBUS AFB   CLOUDY    71  61  72 NW5       29.92F
6HR MIN TEMP:  62; 6HR MAX TEMP:  71; 6HR PCP:  0.01;

CORINTH        MOCLDY    70  59  68 N5        29.92F
GOLDN TRIANGLE PTSUNNY   70  61  73 CALM      29.95F
STARKVILLE     CLOUDY    70  63  78 CALM      29.92F
TUPELO         CLOUDY    71  60  68 N8        29.92F
6HR MIN TEMP:  63; 6HR MAX TEMP:  72; 6HR PCP:  0.02;

$$

MSZ040-058-221900-
CENTRAL MISSISSIPPI

CITY           SKY/WX    TMP DP  RH WIND       PRES   REMARKS
JACKSON INTL   CLOUDY    70  63  78 N7        29.94F
6HR MIN TEMP:  62; 6HR MAX TEMP:  71; 6HR PCP: TRACE;

JACKSON HAWKNS CLOUDY    70  61  73 N7        29.95S
6HR MIN TEMP:  63; 6HR MAX TEMP:  70;

MERIDIAN KEY   CLOUDY    65  63  93 VRB6      29.94F
6HR MIN TEMP:  59; 6HR MAX TEMP:  67; 6HR PCP:  0.03;

MERIDIAN NAS   CLOUDY    65  62  90 CALM      29.94F FOG
6HR MIN TEMP:  62; 6HR MAX TEMP:  65; 6HR PCP:  0.37;

RAYMOND        CLOUDY    70  64  83 N8        29.95S
VICKSBURG      FAIR      76  62  62 N8G17     29.95F
6HR MIN TEMP:  66; 6HR MAX TEMP:  77; 6HR PCP: TRACE;

$$

MSZ059>079-221900-
SOUTH MISSISSIPPI

CITY           SKY/WX    TMP DP  RH WIND       PRES   REMARKS
BROOKHAVEN     CLOUDY    70  64  83 NW8       29.96F
HATTIESBURG    CLOUDY    69  64  84 W6        29.95F
6HR MIN TEMP:  61; 6HR MAX TEMP:  69; 6HR PCP:  0.01;

MCCOMB         CLOUDY    73  63  70 NW10      29.94F
6HR MIN TEMP:  62; 6HR MAX TEMP:  73; 6HR PCP: TRACE;

NATCHEZ        PTSUNNY   70  61  73 NW6       29.97S
6HR MIN TEMP:  64; 6HR MAX TEMP:  70;

PINE BELT      CLOUDY    66  63  88 CALM      29.96F
6HR MIN TEMP:  59; 6HR MAX TEMP:  66;

$$

MSZ080>082-221900-
COASTAL MISSISSIPPI

CITY           SKY/WX    TMP DP  RH WIND       PRES   REMARKS
BAY ST LOUIS   CLOUDY    70  63  78 W8        29.95F
BILOXI         FAIR      74  66  75 SW13      29.94F
6HR MIN TEMP:  61; 6HR MAX TEMP:  76;

PASCAGOULA     PTSUNNY   75  64  68 S6        29.93F
6HR MIN TEMP:  53; 6HR MAX TEMP:  79;

GULFPORT       PTSUNNY   76  63  64 S8        29.93F
6HR MIN TEMP:  59; 6HR MAX TEMP:  78;

$$



USA.gov is the U.S. government's official web portal to all federal, state and local government web resources and services.